Location: Clarkes Court
(12.0333°N, 61.7333°W)
Time: 01:10:47
(UTC+00:00)

Daily predictions for brighter satellites

Satellite Brightness Start Highest point End
(mag) Time Altitude Azimuth Time Altitude Azimuth Time Altitude Azimuth
ARIANE 5 DEB (SYLDA) 4.2 00:02:12 10° WSW 00:07:03 22° S 00:07:18 22° S
Meteor 1-11 Rocket 3.5 00:02:28 10° N 00:08:02 82° E 00:09:48 45° SSE
Cosmos 1184 Rocket 4.4 00:05:11 10° NNW 00:08:03 31° W 00:08:37 29° WSW
OAO 2 Rocket 3.9 00:03:07 10° NW 00:08:13 46° NNE 00:09:00 43° ENE
H-2A ROCKET BODY 2.7 00:06:30 10° SW 00:17:04 12° ENE 00:17:56 10° ENE
Ariane H10 4.3 00:04:58 10° WSW 00:09:24 54° S 00:14:00 35° ESE
STARLINK-1269 4.0 00:07:52 10° SW 00:11:06 53° SW 00:11:06 53° SW
Cosmos 1733 Rocket 3.2 00:08:02 10° N 00:11:39 57° NNE 00:11:39 57° NNE
STARLINK-1200 4.3 00:12:53 10° SW 00:15:55 46° WSW 00:15:55 46° WSW
Celestis-02/Orion 38 4.4 00:17:41 72° ESE 00:18:00 75° ENE 00:23:11 10° NNW
H-2A R/B 2.9 00:21:53 29° SSW 00:23:52 44° W 00:28:35 10° NNW
Cosmos 44 3.4 00:20:25 10° NNW 00:25:21 71° WSW 00:25:31 70° SW
CZ-2C R/B 4.1 00:23:50 26° SSW 00:26:12 42° W 00:31:12 10° NNW
Cosmos 1624 Rocket 4.0 00:26:49 59° SW 00:27:46 78° WNW 00:33:03 10° N
Atlas Centaur 2 3.5 00:21:45 10° WNW 00:29:42 49° SSW 00:31:48 42° S
Cosmos 1816 Rocket 4.4 00:30:45 47° SSW 00:32:39 79° W 00:38:47 10° N
Cosmos 2034 Rocket 4.4 00:29:44 10° N 00:34:27 48° NE 00:34:27 48° NE
Milstar 3 Cent rocket 3.6 00:57:18 10° SW 01:04:58 78° SSE 01:22:16 10° ENE
ATLAS 3B CENTAUR R/B 3.8 01:13:56 10° W 01:27:00 46° NNW 01:28:41 40° N
Cosmos 2278 Rocket 4.1 01:29:04 26° NW 01:29:04 26° NW 01:32:47 10° NNW
Cosmos 2227 Rocket 4.1 06:34:58 10° NNE 06:38:51 26° ENE 06:38:51 26° ENE
ARIANE 5 R/B 4.0 07:03:40 27° SE 07:03:40 27° SE 07:10:53 10° ESE
IDEFIX/ARIANE 42P 3.9 07:01:53 10° NNE 07:04:53 35° NNE 07:04:53 35° NNE
Cosmos 1980 Rocket 4.1 07:19:01 18° NNW 07:19:01 18° NNW 07:20:41 10° N
CZ-2C R/B 3.9 07:23:54 10° NE 07:28:34 34° E 07:30:14 28° SE
Cosmos 1241 Rocket 4.3 07:30:04 76° NNW 07:30:04 76° NNW 07:35:54 10° NNE
SWIFT 3.8 07:36:47 32° NNE 07:36:47 32° NNE 07:40:13 10° ENE
Cosmos 2341 Rocket 4.1 07:34:38 48° SSE 07:36:30 75° E 07:42:52 10° N
Nadezhda 3 Rocket 4.2 07:38:43 10° N 07:44:59 69° E 07:51:10 11° SSE
STARLINK-1306 4.2 07:46:51 56° E 07:46:51 56° E 07:50:24 10° NE
Cosmos 2322 Rocket 2.1 07:45:45 68° S 07:46:31 87° ESE 07:52:09 10° NNE
Cosmos 2297 Rocket 3.9 07:42:33 10° NNW 07:44:13 19° NW 07:44:13 19° NW
GPS 2-12 Rocket1 3.4 07:50:52 55° SE 07:50:52 55° SE 07:54:45 10° ESE
Cosmos 1869 4.1 07:46:34 10° N 07:50:16 47° E 07:50:49 43° ESE
Cosmos 2082 3.7 07:46:16 10° NNW 07:51:53 78° ENE 07:57:28 10° SSE
In-Cosmos 22 Rocket 4.4 07:53:34 53° W 07:53:34 53° W 07:59:07 10° N
Cosmos 2221 2.6 07:51:26 10° N 07:55:46 75° E 07:56:43 52° SSE
PSLV R/B 3.8 07:52:07 10° N 07:55:33 55° NNW 07:55:33 55° NNW
GPS 2-04 Rocket1 4.2 07:54:10 21° NNW 07:56:27 38° NNE 08:00:21 10° ESE
Cosmos 2151 3.6 07:55:08 36° SE 07:56:28 51° E 08:00:34 10° NNE
Delta 2 Rocket 3.8 07:55:41 54° SW 07:57:03 75° SSE 08:03:28 10° ENE
STARLINK-1281 3.5 07:58:54 82° E 07:58:54 82° E 08:02:56 10° NE
H-2A R/B 3.1 08:04:22 31° NW 08:04:22 31° NW 08:06:49 10° NNW
STARLINK-1310 3.4 08:03:42 83° W 08:03:47 85° NW 08:07:55 10° NNE
STARLINK-1319 3.4 08:08:27 69° W 08:08:44 73° NW 08:12:51 10° NNE
STARLINK-1278 3.9 08:09:53 51° WNW 08:10:03 52° NW 08:14:07 10° NNE
ARIANE R/B 4.1 08:08:57 35° WSW 08:11:11 49° S 08:14:50 10° ESE
Cosmos 1315 Rocket 2.8 08:07:28 10° N 08:11:22 79° E 08:13:47 22° S
PAYLOAD A 3.9 08:06:47 10° N 08:11:23 55° WNW 08:12:22 46° WSW
STARLINK-61 3.6 08:10:58 54° S 08:11:37 67° SE 08:15:29 10° NE
STARLINK-1280 3.9 08:11:38 48° WNW 08:11:52 49° NW 08:15:56 10° NNE
SL-16 R/B 2.8 08:12:45 35° W 08:13:28 37° WNW 08:18:39 10° N
ASTRO E2 4.4 08:10:06 11° NW 08:13:32 32° NNE 08:17:07 10° E
STARLINK-1277 3.6 08:13:15 57° W 08:13:43 62° NW 08:17:48 10° NNE
Ariane H10+ 4.2 08:13:09 18° S 08:13:57 20° SSE 08:18:50 10° ESE
STARLINK-1276 3.8 08:18:03 47° W 08:18:42 53° NW 08:22:44 10° NNE
Cosmos 864 Rocket 4.4 08:13:36 13° S 08:19:15 86° W 08:25:23 10° N
Cosmos 2218 Rocket 3.9 08:14:15 16° S 08:19:17 77° W 08:25:35 10° N
Cosmos 1408 3.6 08:22:01 30° WNW 08:22:01 30° WNW 08:24:38 10° NNW
Cosmos 2150 Rocket 4.3 08:18:09 10° N 08:23:15 66° ENE 08:28:20 10° SSE
Cosmos 2227 Rocket 3.9 08:19:07 10° NW 08:20:30 15° WNW 08:20:30 15° WNW
STARLINK-1305 4.0 08:22:48 39° W 08:23:39 46° NW 08:27:37 10° NNE
CZ-4B R/B 1.7 08:22:11 10° SSE 08:25:13 57° ENE 08:28:12 10° N
Cosmos 2333 Rocket 4.2 08:21:07 10° SSE 08:25:44 26° ESE 08:30:20 10° NE
ALOS 3.5 08:22:55 10° NNE 08:27:17 40° E 08:31:39 10° S
Lacrosse 4 Rocket 1.6 08:23:31 10° NNW 08:27:40 68° ENE 08:31:42 10° SSE
STARLINK-1262 4.2 08:27:36 33° W 08:28:38 40° NW 08:32:31 10° NNE
CZ-4B R/B 4.2 08:28:02 10° NNE 08:32:20 79° E 08:36:46 10° S
STARLINK-1300 4.5 08:32:22 28° W 08:33:36 34° NW 08:37:23 10° NNE
Cosmos 1484 Rocket 3.2 08:29:56 10° NNE 08:33:51 65° ESE 08:37:48 10° S
ATLAS 3B CENTAUR R/B 0.4 08:34:35 34° WNW 08:35:32 88° NNE 08:39:39 10° ESE
Cosmos 1825 2.8 08:35:54 30° WSW 08:36:39 33° W 08:40:03 10° NNW
CZ-3A R/B 3.4 08:33:44 23° WSW 08:37:42 85° SSE 09:03:07 10° ENE
Cosmos 2322 4.1 08:36:35 10° S 08:42:12 66° ESE 08:47:50 10° NNE
STARLINK-24 4.4 08:39:24 14° SSW 08:42:39 45° SE 08:46:28 10° NE
STARLINK-51 4.5 08:41:27 12° SSW 08:44:44 41° ESE 08:48:21 10° NE
Cosmos 2298 Rocket 4.0 08:39:47 10° NNW 08:44:59 60° WSW 08:50:12 10° S
STARLINK-30 4.4 08:43:59 12° SSW 08:47:28 45° ESE 08:51:14 10° NE
STARLINK-72 4.3 08:45:35 12° SSW 08:49:08 48° SE 08:52:55 10° NE
Cosmos 2333 4.4 08:45:05 10° S 08:50:41 75° ESE 08:56:15 10° NNE
Cosmos 2360 Rocket 2.6 08:47:54 15° SW 08:52:14 42° WNW 08:57:31 10° N
STARLINK-59 3.9 08:48:56 12° SSW 08:52:30 58° SE 08:56:23 10° NE
Iridium 4 Rocket 4.1 08:49:40 10° SSE 08:53:44 48° E 08:58:01 10° NNE
STARLINK-56 4.0 08:50:20 11° SSW 08:54:02 57° SE 08:57:54 10° NE
STARLINK-73 3.9 08:51:54 11° SSW 08:55:40 60° SE 08:59:32 10° NE
STARLINK-38 3.8 08:52:26 11° SSW 08:56:06 61° SE 08:59:53 10° NE
STARLINK-50 3.9 08:52:29 10° SSW 08:56:22 62° SE 09:00:20 10° NE
STARLINK-65 3.8 08:55:05 10° SSW 08:58:58 67° SE 09:02:53 10° NE
Cosmos 1538 Rocket 4.1 08:55:27 10° SSW 09:00:39 64° WNW 09:05:55 10° N
STARLINK-53 3.6 08:56:50 10° SSW 09:00:42 77° SE 09:04:38 10° NE
STARLINK-1008 4.4 08:56:55 10° SSW 09:00:54 49° SE 09:04:53 10° NE
STARLINK-1014 4.1 09:01:49 10° SSW 09:05:50 57° SE 09:09:51 10° NE
H-2A R/B (2) 2.5 08:54:51 12° WSW 09:06:01 68° SSE 09:09:20 10° ENE
CZ-2C R/B 4.2 09:03:23 10° NW 09:06:25 16° WNW 09:09:27 10° WSW
FENGYUN 3A 3.7 09:01:15 10° N 09:06:35 64° WNW 09:11:57 10° SSW
Cosmos 1340 3.4 09:03:33 10° S 09:07:14 56° E 09:10:55 10° NNE
STARLINK-1025 3.9 09:06:41 10° SSW 09:10:47 67° SE 09:14:52 10° NE
Lacrosse 5 rocket 4.3 09:10:22 10° SE 09:11:33 11° ESE 09:12:43 10° ESE
Cosmos 1125 Rocket 3.5 09:06:34 10° NNW 09:11:41 63° WSW 09:16:49 10° S
STARLINK-1204 4.4 09:08:19 10° NNW 09:12:23 58° NE 09:16:27 10° SE
Cosmos 1606 3.3 09:09:21 10° N 09:13:03 61° E 09:16:47 10° SSE
Uosat 12 SS-18 rocket 4.4 09:08:58 10° NNW 09:13:40 69° WSW 09:19:19 10° SSE
STARLINK-1017 3.7 09:11:39 10° SSW 09:15:46 79° SE 09:19:53 10° NE
USA 32 4.0 09:11:17 10° S 09:16:28 70° W 09:21:40 10° N
Cosmos 1500 Rocket 3.6 09:12:24 10° S 09:16:46 87° E 09:21:10 10° N
STARLINK-1238 4.1 09:13:14 10° NNW 09:17:19 67° NE 09:21:26 10° SE
Cosmos 2219 Rocket 2.2 09:12:14 10° SSW 09:17:52 89° E 09:23:26 10° NNE
Cosmos 1328 Rocket 3.9 09:13:40 10° N 09:18:02 70° E 09:22:21 10° S
SWIFT 2.4 09:14:19 10° WNW 09:18:29 81° NNE 09:22:40 10° ESE
Timation 1 Rocket 4.5 09:13:12 10° NNW 09:18:57 53° WSW 09:24:43 10° S
STARLINK-1023 3.7 09:15:53 10° SW 09:20:03 89° ESE 09:24:13 10° NE
METEOR-M 4.4 09:16:09 10° N 09:21:15 48° WNW 09:26:22 10° SSW
Maqsat-H 4.5 09:06:20 10° W 09:38:38 39° SSW 09:44:43 10° SE
